| time (UTC) | temp F | wind direction | speed MPH | gust MPH | rain 1hr in | rain 24hr in | rain mn in | humidity % | barometer mb |
| 20260509040029 | 53 | 0 | 0.0 | 0.0 | 0.00 | 0.00 | 0.00 | 81 | 1012.8 |
| 20260509034530 | 53 | 0 | 0.0 | 0.0 | 0.00 | 0.00 | 0.00 | 80 | 1012.9 |
| 20260509033026 | 53 | 0 | 0.0 | 0.0 | 0.00 | 0.00 | 0.00 | 79 | 1012.7 |
| 20260509031531 | 54 | 0 | 0.0 | 0.0 | 0.00 | 0.00 | 0.00 | 79 | 1012.5 |
| 20260509030028 | 54 | 0 | 0.0 | 0.0 | 0.00 | 0.00 | 0.00 | 77 | 1012.7 |
| 20260509024530 | 54 | 0 | 0.0 | 0.0 | 0.00 | 0.00 | 0.00 | 77 | 1012.7 |
| 20260509023027 | 54 | 0 | 0.0 | 0.0 | 0.00 | 0.00 | 0.00 | 75 | 1012.6 |
| 20260509021528 | 55 | 0 | 0.0 | 0.0 | 0.00 | 0.00 | 0.00 | 75 | 1012.6 |
| 20260509020029 | 55 | 0 | 0.0 | 0.0 | 0.00 | 0.00 | 0.00 | 77 | 1012.4 |
| 20260509014527 | 55 | 0 | 0.0 | 0.0 | 0.00 | 0.00 | 0.00 | 75 | 1012.3 |
| 20260509013036 | 55 | 0 | 0.0 | 0.0 | 0.00 | 0.00 | 0.00 | 75 | 1012.1 |
| 20260509011530 | 56 | 0 | 0.0 | 0.0 | 0.00 | 0.00 | 0.00 | 74 | 1012.0 |
| 20260509010039 | 56 | 0 | 0.0 | 0.0 | 0.00 | 0.00 | 0.00 | 70 | 1011.8 |
| 20260509004530 | 57 | 0 | 0.0 | 0.0 | 0.00 | 0.00 | 0.00 | 71 | 1011.5 |
| 20260509003028 | 57 | 0 | 0.0 | 0.0 | 0.00 | 0.00 | 0.00 | 72 | 1011.1 |
| 20260509001527 | 58 | 0 | 0.0 | 0.0 | 0.00 | 0.00 | 0.00 | 68 | 1011.1 |
| 20260509000027 | 59 | 0 | 0.0 | 0.0 | 0.00 | 0.00 | 0.00 | 66 | 1011.1 |
| 20260508234528 | 60 | 0 | 0.0 | 0.0 | 0.00 | 0.00 | 0.00 | 56 | 1011.0 |
| 20260508233028 | 60 | 0 | 0.0 | 0.0 | 0.00 | 0.00 | 0.00 | 55 | 1010.8 |
| 20260508231528 | 61 | 0 | 0.0 | 1.0 | 0.00 | 0.00 | 0.00 | 52 | 1010.7 |
| 20260508230037 | 62 | 0 | 0.0 | 3.0 | 0.00 | 0.00 | 0.00 | 54 | 1010.5 |
| 20260508224537 | 63 | 0 | 0.0 | 3.0 | 0.00 | 0.00 | 0.00 | 51 | 1010.6 |
| 20260508223026 | 63 | 0 | 0.0 | 5.0 | 0.00 | 0.00 | 0.00 | 44 | 1010.6 |
| 20260508221541 | 64 | 0 | 0.0 | 4.0 | 0.00 | 0.00 | 0.00 | 42 | 1010.7 |
| 20260508220030 | 64 | 269 | 0.0 | 7.0 | 0.00 | 0.00 | 0.00 | 42 | 1010.6 |
| 20260508214530 | 65 | 254 | 1.0 | 8.0 | 0.00 | 0.01 | 0.00 | 40 | 1010.7 |
| 20260508213029 | 65 | 192 | 1.0 | 7.0 | 0.00 | 0.01 | 0.00 | 40 | 1010.5 |
| 20260508211527 | 65 | 279 | 2.0 | 7.0 | 0.00 | 0.01 | 0.00 | 41 | 1010.7 |
| 20260508210030 | 64 | 282 | 0.0 | 13.0 | 0.00 | 0.01 | 0.00 | 43 | 1010.8 |
| 20260508204528 | 64 | 0 | 0.0 | 7.0 | 0.00 | 0.01 | 0.00 | 42 | 1010.7 |
| 20260508203029 | 64 | 300 | 0.0 | 8.0 | 0.00 | 0.01 | 0.00 | 41 | 1010.9 |
| 20260508201528 | 65 | 281 | 4.0 | 11.0 | 0.00 | 0.01 | 0.00 | 39 | 1010.9 |
| 20260508200026 | 63 | 0 | 5.0 | 11.0 | 0.00 | 0.01 | 0.00 | 42 | 1011.0 |
| 20260508194528 | 64 | 259 | 1.0 | 7.0 | 0.00 | 0.01 | 0.00 | 41 | 1010.9 |
| 20260508193030 | 64 | 263 | 3.0 | 22.0 | 0.00 | 0.01 | 0.00 | 40 | 1011.0 |
| 20260508191530 | 64 | 339 | 4.0 | 11.0 | 0.00 | 0.01 | 0.00 | 42 | 1010.9 |
| 20260508190031 | 64 | 229 | 4.0 | 11.0 | 0.00 | 0.01 | 0.00 | 43 | 1011.0 |
| 20260508184533 | 65 | 290 | 3.0 | 10.0 | 0.00 | 0.01 | 0.00 | 39 | 1011.0 |
| 20260508183030 | 64 | 258 | 3.0 | 12.0 | 0.00 | 0.01 | 0.00 | 42 | 1011.3 |
| 20260508181529 | 64 | 248 | 3.0 | 10.0 | 0.00 | 0.01 | 0.00 | 39 | 1011.4 |
| 20260508180027 | 63 | 273 | 4.0 | 13.0 | 0.00 | 0.01 | 0.00 | 41 | 1011.4 |
| 20260508174536 | 63 | 320 | 4.0 | 11.0 | 0.00 | 0.01 | 0.00 | 41 | 1011.6 |
| 20260508173028 | 62 | 290 | 4.0 | 15.0 | 0.00 | 0.01 | 0.00 | 42 | 1011.7 |
| 20260508171526 | 63 | 200 | 6.0 | 14.0 | 0.00 | 0.01 | 0.00 | 39 | 1012.1 |
| 20260508170030 | 62 | 338 | 3.0 | 12.0 | 0.00 | 0.01 | 0.00 | 46 | 1011.9 |
| 20260508164534 | 61 | 269 | 5.0 | 16.0 | 0.00 | 0.01 | 0.00 | 44 | 1011.9 |
| 20260508163028 | 60 | 243 | 2.0 | 15.0 | 0.00 | 0.01 | 0.00 | 45 | 1012.2 |
| 20260508161526 | 60 | 327 | 4.0 | 10.0 | 0.00 | 0.01 | 0.00 | 45 | 1012.7 |
| 20260508160031 | 59 | 189 | 1.0 | 9.0 | 0.00 | 0.01 | 0.00 | 46 | 1013.0 |
| 20260508154528 | 58 | 211 | 2.0 | 8.0 | 0.00 | 0.01 | 0.00 | 48 | 1013.1 |
| 20260508153028 | 57 | 265 | 1.0 | 6.0 | 0.00 | 0.01 | 0.00 | 49 | 1013.5 |
| 20260508151530 | 57 | 281 | 1.0 | 7.0 | 0.00 | 0.01 | 0.00 | 47 | 1013.5 |
| 20260508150026 | 57 | 0 | 2.0 | 8.0 | 0.00 | 0.01 | 0.00 | 45 | 1013.6 |
| 20260508144530 | 57 | 236 | 1.0 | 10.0 | 0.00 | 0.01 | 0.00 | 47 | 1013.6 |
| 20260508143027 | 56 | 0 | 1.0 | 6.0 | 0.00 | 0.01 | 0.00 | 51 | 1013.5 |
| 20260508141528 | 56 | 0 | 1.0 | 9.0 | 0.00 | 0.01 | 0.00 | 48 | 1013.6 |
| 20260508140028 | 55 | 0 | 1.0 | 7.0 | 0.00 | 0.01 | 0.00 | 53 | 1013.7 |
| 20260508134528 | 54 | 0 | 0.0 | 3.0 | 0.00 | 0.01 | 0.00 | 50 | 1013.7 |
| 20260508133029 | 54 | 0 | 0.0 | 3.0 | 0.00 | 0.01 | 0.00 | 53 | 1013.6 |
| 20260508131528 | 54 | 0 | 0.0 | 4.0 | 0.00 | 0.01 | 0.00 | 51 | 1013.8 |
| 20260508130030 | 53 | 0 | 0.0 | 3.0 | 0.00 | 0.01 | 0.00 | 55 | 1013.8 |
| 20260508124526 | 52 | 0 | 0.0 | 3.0 | 0.00 | 0.01 | 0.00 | 63 | 1014.0 |
| 20260508123027 | 51 | 0 | 0.0 | 4.0 | 0.00 | 0.01 | 0.00 | 70 | 1013.9 |
| 20260508121530 | 49 | 0 | 0.0 | 0.0 | 0.00 | 0.01 | 0.00 | 76 | 1013.7 |
| 20260508120027 | 47 | 0 | 0.0 | 1.0 | 0.00 | 0.01 | 0.00 | 80 | 1013.5 |
| 20260508114528 | 45 | 0 | 0.0 | 0.0 | 0.00 | 0.01 | 0.00 | 85 | 1013.5 |
| 20260508113028 | 43 | 0 | 0.0 | 0.0 | 0.00 | 0.01 | 0.00 | 89 | 1013.7 |
| 20260508111526 | 41 | 0 | 0.0 | 0.0 | 0.00 | 0.01 | 0.00 | 89 | 1013.6 |
| 20260508110027 | 40 | 0 | 0.0 | 0.0 | 0.00 | 0.01 | 0.00 | 88 | 1013.5 |
| 20260508104538 | 40 | 0 | 0.0 | 0.0 | 0.00 | 0.01 | 0.00 | 88 | 1013.5 |
| 20260508103034 | 40 | 0 | 0.0 | 0.0 | 0.00 | 0.01 | 0.00 | 86 | 1013.4 |
| 20260508101527 | 40 | 0 | 0.0 | 0.0 | 0.00 | 0.01 | 0.00 | 85 | 1013.2 |
| 20260508100029 | 41 | 0 | 0.0 | 0.0 | 0.00 | 0.01 | 0.00 | 84 | 1012.9 |
| 20260508094527 | 42 | 0 | 0.0 | 0.0 | 0.00 | 0.01 | 0.00 | 83 | 1012.9 |
| 20260508093028 | 42 | 0 | 0.0 | 0.0 | 0.00 | 0.01 | 0.00 | 82 | 1012.8 |
| 20260508091527 | 43 | 0 | 0.0 | 0.0 | 0.00 | 0.01 | 0.00 | 80 | 1012.7 |
| 20260508090031 | 44 | 0 | 0.0 | 0.0 | 0.00 | 0.01 | 0.00 | 79 | 1012.6 |
| 20260508084528 | 45 | 0 | 0.0 | 0.0 | 0.00 | 0.01 | 0.00 | 78 | 1012.4 |
| 20260508083025 | 46 | 0 | 0.0 | 0.0 | 0.00 | 0.01 | 0.00 | 77 | 1012.2 |
| 20260508081528 | 47 | 0 | 0.0 | 5.0 | 0.00 | 0.01 | 0.00 | 74 | 1011.9 |
| 20260508080028 | 47 | 0 | 0.0 | 2.0 | 0.00 | 0.01 | 0.00 | 74 | 1011.8 |
| 20260508074528 | 48 | 0 | 0.0 | 2.0 | 0.00 | 0.07 | 0.00 | 73 | 1011.4 |
| 20260508073028 | 49 | 0 | 0.0 | 4.0 | 0.00 | 0.07 | 0.00 | 73 | 1011.4 |
| 20260508071528 | 49 | 286 | 0.0 | 7.0 | 0.00 | 0.07 | 0.00 | 72 | 1011.2 |
| 20260508070041 | 49 | 0 | 0.0 | 4.0 | 0.00 | 0.07 | 0.00 | 72 | 1010.9 |
| 20260508064534 | 49 | 0 | 0.0 | 9.0 | 0.00 | 0.17 | 0.00 | 72 | 1010.8 |
| 20260508063028 | 49 | 0 | 0.0 | 9.0 | 0.00 | 0.17 | 0.00 | 74 | 1010.7 |
| 20260508061528 | 48 | 0 | 0.0 | 2.0 | 0.00 | 0.17 | 0.00 | 77 | 1010.0 |
| 20260508060032 | 48 | 0 | 0.0 | 6.0 | 0.00 | 0.17 | 0.00 | 78 | 1009.4 |
| 20260508054530 | 48 | 0 | 0.0 | 1.0 | 0.00 | 0.34 | 0.00 | 86 | 1009.8 |
| 20260508053031 | 48 | 0 | 0.0 | 4.0 | 0.00 | 0.34 | 0.00 | 87 | 1009.9 |
| 20260508051528 | 48 | 0 | 0.0 | 0.0 | 0.00 | 0.34 | 0.00 | 86 | 1009.4 |
| 20260508050030 | 48 | 0 | 0.0 | 0.0 | 0.00 | 0.34 | 0.00 | 86 | 1009.3 |
| 20260508044528 | 48 | 0 | 0.0 | 0.0 | 0.00 | 0.36 | 0.00 | 85 | 1009.4 |
| 20260508043048 | 48 | 0 | 0.0 | 1.0 | 0.00 | 0.36 | 0.00 | 84 | 1009.7 |
| 20260508041528 | 48 | 0 | 0.0 | 0.0 | 0.00 | 0.36 | 0.00 | 83 | 1009.3 |